Weather History for KEIK - September, 2012

Change the Weather History Date:

Tuesday, September 4, 2012

  Actual Average (KDEN) Record (KDEN)
Temperature  
Mean Temperature 71 °F 68 °F  
Max Temperature 91 °F 83 °F 97 °F (1995)
Min Temperature 51 °F 53 °F 40 °F (1968)
Degree Days  
Heating Degree Days 0 2  
Month to date heating degree days 5  
Since 1 July heating degree days 21  
Cooling Degree Days 6 5  
Month to date cooling degree days 20  
Year to date cooling degree days 708  
Growing Degree Days 21 (Base 50)    
Moisture  
Dew Point 24 °F    
Average Humidity 15    
Maximum Humidity 60    
Minimum Humidity 7    
Precipitation  
Precipitation 0.00 in 0.04 in 1.08 in (1926)
Month to date precipitation 0.13  
Year to date precipitation 11.49  
Snow  
Snow 0.00 in - - ()
Month to date snowfall  
Since 1 July snowfall  
Since 1 September snowfall  
Snow Depth -    
Sea Level Pressure  
Sea Level Pressure 30.08 in    
Wind  
Wind Speed 7 mph (WNW)    
Max Wind Speed 23 mph    
Max Gust Speed 33 mph    
Visibility 10 miles    
Events      
T = Trace of Precipitation, MM = Missing Value Source: NWS Daily Summary

Daily Weather History Graph

Daily Weather History Graph

Search for Another Location

Airport or City:

Trip Planner

Search our weather history database for the weather conditions in past years. The results will help you decide how hot, cold, wet, or windy it might be!

Date:

Astronomy

Sep. 04, 2012 Rise Set
Actual Time 6:31 AM MDT 7:26 PM MDT
Civil Twilight 6:03 AM MDT 7:53 PM MDT
Nautical Twilight 5:30 AM MDT 8:26 PM MDT
Astronomical Twilight 4:56 AM MDT 9:00 PM MDT
Moon 9:20 PM MDT (9/4) 10:40 AM MDT (9/4)
Length of Visible Light 13h 49m
Length of Day
12h 54m
Waning Gibbous, 83% of the Moon is Illuminated
Sep 4
Waning Gibbous
Sep 8
Last Quarter
Sep 15
New
Sep 22
First Quarter
Sep 29
Full

Hourly Weather History & Observations

Time (MDT) Temp. Dew Point Humidity Pressure Visibility Wind Dir Wind Speed Gust Speed Precip Events Conditions
6:54 AM 51.4 °F 37.9 °F 60% 30.14 in 10.0 mi NNE 3.5 mph - N/A   Clear
7:14 AM 55.0 °F 37.6 °F 52% 30.15 in 10.0 mi Calm Calm - N/A   Clear
7:34 AM 59.2 °F 39.0 °F 47% 30.14 in 10.0 mi Calm Calm - N/A   Clear
7:54 AM 64.2 °F 38.8 °F 39% 30.15 in 10.0 mi South 4.6 mph - N/A   Clear
8:14 AM 68.4 °F 37.2 °F 32% 30.14 in 10.0 mi SW 3.5 mph - N/A   Clear
8:34 AM 72.0 °F 35.8 °F 27% 30.14 in 10.0 mi Calm Calm - N/A   Clear
8:54 AM 75.6 °F 32.2 °F 20% 30.14 in 10.0 mi Calm Calm - N/A   Clear
9:14 AM 78.1 °F 31.6 °F 18% 30.14 in 10.0 mi WSW 3.5 mph - N/A   Clear
9:34 AM 81.1 °F 30.7 °F 16% 30.14 in 10.0 mi SW 3.5 mph - N/A   Clear
10:14 AM 85.1 °F 24.4 °F 11% 30.13 in 10.0 mi NW 4.6 mph - N/A   Clear
10:34 AM 86.4 °F 22.1 °F 10% 30.13 in 10.0 mi WNW 18.4 mph 25.3 mph N/A   Clear
10:54 AM 87.4 °F 19.6 °F 8% 30.13 in 10.0 mi NNW 6.9 mph 25.3 mph N/A   Clear
11:14 AM 86.9 °F 20.5 °F 9% 30.13 in 10.0 mi NNW 8.1 mph - N/A   Clear
11:34 AM 86.0 °F 21.4 °F 9% 30.12 in 10.0 mi Calm Calm - N/A   Clear
11:54 AM 88.7 °F 18.1 °F 7% 30.12 in 10.0 mi WNW 13.8 mph 25.3 mph N/A   Clear
12:14 PM 88.7 °F 16.9 °F 7% 30.10 in 10.0 mi NW 13.8 mph 24.2 mph N/A   Clear
12:34 PM 87.8 °F 18.0 °F 8% 30.09 in 10.0 mi West 23.0 mph 33.4 mph N/A   Clear
12:54 PM 88.5 °F 18.3 °F 8% 30.09 in 10.0 mi West 17.3 mph 32.2 mph N/A   Clear
1:14 PM 88.7 °F 19.0 °F 8% 30.08 in 10.0 mi West 19.6 mph 26.5 mph N/A   Clear
1:34 PM 85.8 °F 20.1 °F 9% 30.08 in 10.0 mi WNW 12.7 mph 25.3 mph N/A   Clear
1:54 PM 88.9 °F 20.5 °F 8% 30.07 in 10.0 mi West 12.7 mph 19.6 mph N/A   Clear
2:14 PM 90.7 °F 20.5 °F 8% 30.06 in 10.0 mi West 16.1 mph 24.2 mph N/A   Clear
2:34 PM 91.6 °F 20.8 °F 8% 30.06 in 10.0 mi West 13.8 mph 24.2 mph N/A   Clear
2:54 PM 91.4 °F 20.5 °F 8% 30.05 in 10.0 mi West 13.8 mph 20.7 mph N/A   Clear
3:14 PM 89.2 °F 20.8 °F 8% 30.04 in 10.0 mi WNW 12.7 mph 25.3 mph N/A   Clear
3:28 PM 88.3 °F 20.5 °F 8% 30.03 in 10.0 mi NW 9.2 mph 21.9 mph N/A   Clear
4:14 PM 87.3 °F 24.1 °F 10% 30.02 in 10.0 mi NW 5.8 mph - N/A   Clear
4:34 PM 87.6 °F 23.5 °F 10% 30.02 in 10.0 mi West 11.5 mph 17.3 mph N/A   Clear
4:54 PM 91.2 °F 25.0 °F 9% 30.01 in 10.0 mi WNW 15.0 mph - N/A   Clear
5:14 PM 90.7 °F 24.8 °F 9% 30.01 in 10.0 mi WNW 17.3 mph 23.0 mph N/A   Clear
5:34 PM 90.0 °F 24.6 °F 9% 30.01 in 10.0 mi West 11.5 mph 20.7 mph N/A   Clear
5:54 PM 89.1 °F 23.5 °F 9% 30.01 in 10.0 mi WNW 17.3 mph 23.0 mph N/A   Clear
6:14 PM 88.0 °F 21.9 °F 9% 30.01 in 10.0 mi NW 15.0 mph 25.3 mph N/A   Clear
6:34 PM 86.9 °F 22.8 °F 10% 30.02 in 10.0 mi WNW 11.5 mph 19.6 mph N/A   Clear
6:54 PM 84.6 °F 23.9 °F 11% 30.02 in 10.0 mi WNW 9.2 mph - N/A   Clear
7:14 PM 81.9 °F 22.1 °F 11% 30.02 in 10.0 mi WNW 13.8 mph 19.6 mph N/A   Clear
7:34 PM 81.5 °F 20.1 °F 10% 30.02 in 10.0 mi West 10.4 mph - N/A   Clear
7:54 PM 79.2 °F 20.3 °F 11% 30.03 in 10.0 mi West 6.9 mph - N/A   Clear
8:14 PM 74.5 °F 20.3 °F 13% 30.04 in 10.0 mi WNW 4.6 mph - N/A   Clear
8:34 PM 71.8 °F 21.2 °F 15% 30.05 in 10.0 mi Calm Calm - N/A   Clear
9:14 PM 69.4 °F 23.7 °F 18% 30.07 in 10.0 mi Calm Calm - N/A   Clear
9:34 PM 70.2 °F 24.3 °F 18% 30.07 in 10.0 mi Calm Calm - N/A   Clear
9:54 PM 69.4 °F 24.3 °F 18% 30.07 in 10.0 mi Calm Calm - N/A   Clear
10:14 PM 69.3 °F 22.6 °F 17% 30.07 in 10.0 mi West 3.5 mph - N/A   Clear
10:34 PM 73.4 °F 19.0 °F 13% 30.07 in 10.0 mi West 9.2 mph - N/A   Clear
10:54 PM 70.2 °F 23.4 °F 17% 30.07 in 10.0 mi Calm Calm - N/A   Clear
11:14 PM 66.9 °F 23.9 °F 20% 30.08 in 10.0 mi Calm Calm - N/A   Clear
11:34 PM 68.5 °F 21.2 °F 17% 30.08 in 10.0 mi SW 8.1 mph - N/A   Clear
11:54 PM 66.2 °F 21.7 °F 18% 30.08 in 10.0 mi Calm Calm - N/A   Clear